Regional Weather Roundup
Issued by NWS Spokane, WA

Home | Current Version | Previous Version | Text Only | Print | Product List | Glossary On
Versions: 1 2 3 4 5 6 7 8 9 10 11 12 13 14 15 16 17 18 19 20 21 22 23 24 25 26 27 28 29 30 31 32 33 34 35 36 37 38 39 40 41 42 43 44 45 46 47 48 49 50
842
NZUS01 KOTX 121210
RWROTX
EASTERN WASHINGTON/NORTHERN IDAHO ROUNDUP
NATIONAL WEATHER SERVICE, SPOKANE WA
400 AM PST FRI FEB 12 2016

Note: "fair" indicated few or no clouds below 12,000 feet with no
significant weather and/or obstructions to visibility.

...NORTHEAST WASHINGTON AND NORTHERN IDAHO PANHANDLE...

CITY           SKY/WX    TMP DP  RH WIND       PRES   REMARKS
SPOKANE INTL   CLOUDY    39  38  96 NE5       30.19S
SPOKANE DOWNTO CLOUDY    41  38  89 CALM      30.21S
COEUR D ALENE  CLOUDY    39  36  87 NE8       30.19R
DEER PARK      CLOUDY    38  36  92 CALM      30.21S
SANDPOINT      DRIZZLE   36  36 100 CALM      30.23S
BONNERS FERRY  CLOUDY    32  32 100 CALM      30.24F FOG

...SOUTHEAST WASHINGTON AND SOUTHERN IDAHO PANHANDLE...

CITY           SKY/WX    TMP DP  RH WIND       PRES   REMARKS
WALLA WALLA    CLOUDY    41  40  96 SW5       30.22S FOG
PULLMAN/MOSCOW CLOUDY    44  39  82 SE9       30.19S
LEWISTON       CLOUDY    48  36  63 VRB3      30.20R
LOWELL           N/A     40  38  93 NW3       30.27F

...COLUMBIA BASIN...

CITY           SKY/WX    TMP DP  RH WIND       PRES   REMARKS
EPHRATA        CLOUDY    40  38  93 N5        30.18F
MOSES LAKE     CLOUDY    37  36  96 S7        30.20F
TRI CITIES     MOCLDY    38  37  97 E7        30.22F
HERMISTON      CLOUDY    41  40  96 CALM      30.22F
PENDLETON      FOG       40  40 100 S6        30.21S VSB 1/4

...EAST SLOPES CASCADES...

CITY           SKY/WX    TMP DP  RH WIND       PRES   REMARKS
THE DALLES     CLOUDY    44  42  93 CALM      30.23F FOG
YAKIMA         CLOUDY    41  37  86 CALM      30.21S
ELLENSBURG     FOG       35  32  88 N5        30.18F VSB 1/4
WENATCHEE      FOG       36  34  92 CALM      30.21S VSB 1/2
OMAK           CLOUDY    34  33  96 CALM      30.21F FOG

...SOUTHERN BRITISH COLUMBIA...

CITY           SKY/WX    TMP DP  RH WIND       PRES   REMARKS
PENTICTON      LGT RAIN  37  37 100 S2        30.18F FOG
CRANBROOK      CLOUDY    32  30  93 SE2       30.20F

...WESTERN MONTANA...

CITY           SKY/WX    TMP DP  RH WIND       PRES   REMARKS
MISSOULA       LGT RAIN  34  33  96 NW3       30.25S VSB 1/2

...NEIGHBORING CITIES...

CITY           SKY/WX    TMP DP  RH WIND       PRES   REMARKS
SEATTLE        CLOUDY    52  48  87 SE14      30.09F
CALGARY        FOG       27  27 100 SE10      30.19F VSB 1/4 WCI  17



USA.gov is the U.S. government's official web portal to all federal, state and local government web resources and services.